Location: Aldenham
(51.6667°N, 0.3500°W)
Time: 03:16:54
(UTC+00:00)

A-11 Canister half - Pass Details

Date: 20 February 2026
Orbit: 1512 x 1687 km, 47.2° (Epoch: 7 March)

Event Time Altitude Azimuth Distance (km) Brightness Sun altitude
Rises 19:39:30 0° 211° (SSW) 4,930 11.9 -21.4°
Reaches altitude 10° 19:43:00 10° 203° (SSW) 3,945 11.3 -21.9°
Maximum altitude 19:51:51 36° 142° (SE) 2,437 9.6 -23.3°
Enters shadow 19:53:36 34° 123° (ESE) 2,509 9.6 -23.5°
Drops below altitude 10° 20:00:35 10° 81° (E) 3,896 - -24.6°
Sets 20:04:00 0° 74° (ENE) 4,863 - -25.1°
